User: anonymous   Login
Location: ActonStarParty
(42.4766°N, 71.4538°W)
Time: 23:18:39
(UTC-04:00)
Language:

ITAMSAT 1 - Orbit

View from above orbital plane
View from above orbital plane
View from above satellite
View from above satellite

Ground track
Ground track

The orbit data is extracted from the following two-line orbital elements,

1 22826U 93061D   15088.84444504  .00000268  00000-0  12090-3 0  9995
2 22826 098.6949 039.1466 0009091 165.9831 194.1605 14.30168021121745
Epoch (UTC): 29 March 2015 20:16:00
Eccentricity: 0.0009091
inclination: 98.6949°
perigee height: 784 km
apogee height: 797 km
right ascension of ascending node: 39.1466°
argument of perigee: 165.9831°
revolutions per day: 14.30168021
mean anomaly at epoch: 194.1605°
orbit number at epoch: 12174

The dashed part of the orbit path shows where the satellite is in the earth's shadow,  

DLR